Tracking 23610 objects as of 21-Sep-2021
HD Live streaming from Space Station
objects crossing your sky now

IRIDIUM 38

Track IRIDIUM 38 now!
10-day predictions
IRIDIUM 38 is classified as:


NORAD ID: 25043
Int'l Code: 1997-069E
Perigee: 777.2 km
Apogee: 778.8 km
Inclination: 86.4 °
Period: 100.3 minutes
Semi major axis: 7148 km
RCS: 5.0293 m2 (large)
Launch date: November 9, 1997
Source: United States (US)
Launch site: AIR FORCE WESTERN TEST RANGE (AFWTR)
aabbcc
Your satellite tracking list
Your tracking list is empty




NASA's NSSDC Master Catalog

Two Line Element Set (TLE):
1 25043U 97069E   21263.46989797  .00000117  00000-0  33352-4 0  9997
2 25043  86.3906  86.6225 0001127 125.9533 234.1769 14.36278951249830
Source of the keplerian elements: AFSPC